Location: Hillern
(53.0557°N, 9.8577°E)
Time: 16:25:47
(UTC+00:00)

ASTEX 1 - Pass Details

Date: 19 May 2025
Orbit: 715 x 734 km, 92.7° (Epoch: 17 June)

Event Time Altitude Azimuth Distance (km) Brightness Sun altitude
Rises 23:16:27 0° 6° (N) 3,162 8.4 -17.0°
Reaches altitude 10° 23:18:45 10° 8° (N) 2,239 7.2 -17.0°
Maximum altitude 23:23:43 81° 95° (E) 749 3.4 -16.9°
Enters shadow 23:26:12 30° 180° (S) 1,295 4.1 -16.9°
